Time,TemperatureF,DewpointF,PressureIn,WindDirection,WindDirectionDegrees,WindSpeedMPH,WindSpeedGustMPH,Humidity,HourlyPrecipIn,Conditions,Clouds,dailyrainin,SoftwareType,DateUTC
2013-06-24 00:01:00,74.3,62.6,30.12,WNW,292,0.0,0.0,67,0.00,,---,0.00,VWS V14.01,2013-06-24 05:01:00,
2013-06-24 00:06:00,74.3,63.1,30.09,West,270,0.0,0.0,68,0.00,,---,0.00,VWS V14.01,2013-06-24 05:06:00,
2013-06-24 00:11:00,74.1,63.7,30.09,WSW,248,0.0,0.0,70,0.00,,---,0.00,VWS V14.01,2013-06-24 05:11:00,
2013-06-24 00:16:00,73.8,63.8,30.09,WSW,248,0.0,0.0,71,0.00,,---,0.00,VWS V14.01,2013-06-24 05:16:00,
2013-06-24 00:21:00,73.6,63.2,30.09,WSW,248,0.0,0.0,70,0.00,,---,0.00,VWS V14.01,2013-06-24 05:21:00,
2013-06-24 00:26:00,73.4,63.8,30.09,WSW,248,0.0,0.0,72,0.00,,---,0.00,VWS V14.01,2013-06-24 05:26:00,
2013-06-24 00:31:00,73.0,63.9,30.09,WSW,248,0.0,0.0,73,0.00,,---,0.00,VWS V14.01,2013-06-24 05:31:00,
2013-06-24 00:36:00,73.0,64.3,30.09,WSW,248,0.0,0.0,74,0.00,,---,0.00,VWS V14.01,2013-06-24 05:36:00,
2013-06-24 00:41:00,73.0,64.3,30.09,WSW,248,0.0,2.0,74,0.00,,---,0.00,VWS V14.01,2013-06-24 05:41:00,
2013-06-24 00:46:00,73.0,64.3,30.09,WSW,248,0.0,0.0,74,0.00,,---,0.00,VWS V14.01,2013-06-24 05:46:00,
2013-06-24 00:51:00,72.9,64.5,30.09,WSW,248,0.0,0.0,75,0.00,,---,0.00,VWS V14.01,2013-06-24 05:51:00,
2013-06-24 00:56:00,72.9,64.5,30.09,West,270,0.0,0.0,75,0.00,,---,0.00,VWS V14.01,2013-06-24 05:56:00,
2013-06-24 01:01:00,72.7,64.3,30.09,West,270,0.0,0.0,75,0.00,,---,0.00,VWS V14.01,2013-06-24 06:01:00,
2013-06-24 01:06:00,72.7,64.7,30.09,WSW,248,0.0,0.0,76,0.00,,---,0.00,VWS V14.01,2013-06-24 06:06:00,
2013-06-24 01:11:00,72.7,65.1,30.09,WSW,248,0.0,0.0,77,0.00,,---,0.00,VWS V14.01,2013-06-24 06:11:00,
2013-06-24 01:16:00,72.5,64.9,30.09,SW,225,0.0,0.0,77,0.00,,---,0.00,VWS V14.01,2013-06-24 06:16:00,
2013-06-24 01:21:00,72.5,65.3,30.09,WSW,248,0.0,0.0,78,0.00,,---,0.00,VWS V14.01,2013-06-24 06:21:00,
2013-06-24 01:26:00,72.3,65.1,30.09,SE,135,0.0,0.0,78,0.00,,---,0.00,VWS V14.01,2013-06-24 06:26:00,
2013-06-24 01:32:00,72.3,65.4,30.09,SSE,158,0.0,0.0,79,0.00,,---,0.00,VWS V14.01,2013-06-24 06:32:00,
2013-06-24 01:37:00,72.3,65.4,30.12,SSW,202,0.0,0.0,79,0.00,,---,0.00,VWS V14.01,2013-06-24 06:37:00,
2013-06-24 01:42:00,72.1,65.3,30.12,SSW,202,0.0,0.0,79,0.00,,---,0.00,VWS V14.01,2013-06-24 06:42:00,
2013-06-24 01:47:00,72.1,65.6,30.12,SSW,202,0.0,0.0,80,0.00,,---,0.00,VWS V14.01,2013-06-24 06:47:00,
2013-06-24 01:52:00,72.1,65.6,30.12,SSW,202,0.0,0.0,80,0.00,,---,0.00,VWS V14.01,2013-06-24 06:52:00,
2013-06-24 01:57:00,72.0,65.5,30.12,SSW,202,0.0,0.0,80,0.00,,---,0.00,VWS V14.01,2013-06-24 06:57:00,
2013-06-24 02:02:00,72.0,65.5,30.12,SSW,202,0.0,0.0,80,0.00,,---,0.00,VWS V14.01,2013-06-24 07:02:00,
2013-06-24 02:07:00,72.0,65.5,30.09,SSW,202,0.0,0.0,80,0.00,,---,0.00,VWS V14.01,2013-06-24 07:07:00,
2013-06-24 02:12:00,71.8,65.3,30.09,SSW,202,0.0,0.0,80,0.00,,---,0.00,VWS V14.01,2013-06-24 07:12:00,
2013-06-24 02:17:00,71.8,65.3,30.09,SSE,158,0.0,0.0,80,0.00,,---,0.00,VWS V14.01,2013-06-24 07:17:00,
2013-06-24 02:22:00,71.8,65.6,30.12,SE,135,0.0,0.0,81,0.00,,---,0.00,VWS V14.01,2013-06-24 07:22:00,
2013-06-24 02:27:00,71.8,65.6,30.12,SW,225,0.0,0.0,81,0.00,,---,0.00,VWS V14.01,2013-06-24 07:27:00,
2013-06-24 02:32:00,71.8,65.6,30.12,ESE,112,0.0,0.0,81,0.00,,---,0.00,VWS V14.01,2013-06-24 07:32:00,
2013-06-24 02:37:00,71.8,65.6,30.12,ESE,112,0.0,0.0,81,0.00,,---,0.00,VWS V14.01,2013-06-24 07:37:00,
2013-06-24 02:42:00,71.8,65.6,30.12,ESE,112,0.0,0.0,81,0.00,,---,0.00,VWS V14.01,2013-06-24 07:42:00,
2013-06-24 02:47:00,71.8,65.6,30.12,ESE,112,0.0,0.0,81,0.00,,---,0.00,VWS V14.01,2013-06-24 07:47:00,
2013-06-24 02:52:00,71.8,66.0,30.12,ESE,112,0.0,0.0,82,0.00,,---,0.00,VWS V14.01,2013-06-24 07:52:00,
2013-06-24 02:57:00,71.8,66.0,30.12,ESE,112,0.0,0.0,82,0.00,,---,0.00,VWS V14.01,2013-06-24 07:57:00,
2013-06-24 03:02:00,71.8,66.0,30.12,ESE,112,0.0,0.0,82,0.00,,---,0.00,VWS V14.01,2013-06-24 08:02:00,
2013-06-24 03:08:00,71.8,66.0,30.09,ESE,112,0.0,0.0,82,0.00,,---,0.00,VWS V14.01,2013-06-24 08:08:00,
2013-06-24 03:13:00,71.8,66.3,30.09,WSW,248,0.0,0.0,83,0.00,,---,0.00,VWS V14.01,2013-06-24 08:13:00,
2013-06-24 03:18:00,71.8,66.0,30.09,WSW,248,0.0,0.0,82,0.00,,---,0.00,VWS V14.01,2013-06-24 08:18:00,
2013-06-24 03:23:00,71.8,66.3,30.09,WSW,248,0.0,0.0,83,0.00,,---,0.00,VWS V14.01,2013-06-24 08:23:00,
2013-06-24 03:28:00,71.8,66.0,30.09,WSW,248,0.0,0.0,82,0.00,,---,0.00,VWS V14.01,2013-06-24 08:28:00,
2013-06-24 03:33:00,71.8,65.6,30.09,WSW,248,0.0,0.0,81,0.00,,---,0.00,VWS V14.01,2013-06-24 08:33:00,
2013-06-24 03:38:00,72.0,65.8,30.09,WSW,248,0.0,0.0,81,0.00,,---,0.00,VWS V14.01,2013-06-24 08:38:00,
2013-06-24 03:44:00,72.0,66.2,30.09,WSW,248,0.0,0.0,82,0.00,,---,0.00,VWS V14.01,2013-06-24 08:44:00,
2013-06-24 03:49:00,72.0,66.2,30.09,WSW,248,0.0,0.0,82,0.00,,---,0.00,VWS V14.01,2013-06-24 08:49:00,
2013-06-24 03:54:00,72.0,66.2,30.09,WSW,248,0.0,0.0,82,0.00,,---,0.00,VWS V14.01,2013-06-24 08:54:00,
2013-06-24 03:59:00,72.0,66.5,30.09,WSW,248,0.0,0.0,83,0.00,,---,0.00,VWS V14.01,2013-06-24 08:59:00,
2013-06-24 04:04:00,72.0,66.5,30.09,WSW,248,0.0,0.0,83,0.00,,---,0.00,VWS V14.01,2013-06-24 09:04:00,
2013-06-24 04:09:00,72.0,66.5,30.09,West,270,0.0,0.0,83,0.00,,---,0.00,VWS V14.01,2013-06-24 09:09:00,
2013-06-24 04:14:00,72.0,66.5,30.09,West,270,0.0,0.0,83,0.00,,---,0.00,VWS V14.01,2013-06-24 09:14:00,
2013-06-24 04:19:00,72.0,66.5,30.09,West,270,0.0,0.0,83,0.00,,---,0.00,VWS V14.01,2013-06-24 09:19:00,
2013-06-24 04:24:00,72.0,66.9,30.09,West,270,0.0,0.0,84,0.00,,---,0.00,VWS V14.01,2013-06-24 09:24:00,
2013-06-24 04:29:00,72.0,67.2,30.09,West,270,0.0,0.0,85,0.00,,---,0.00,VWS V14.01,2013-06-24 09:29:00,
2013-06-24 04:34:00,72.0,67.2,30.09,West,270,0.0,0.0,85,0.00,,---,0.00,VWS V14.01,2013-06-24 09:34:00,
2013-06-24 04:39:00,72.0,66.9,30.09,West,270,0.0,0.0,84,0.00,,---,0.00,VWS V14.01,2013-06-24 09:39:00,
2013-06-24 04:44:00,72.1,67.0,30.09,WSW,248,0.0,0.0,84,0.00,,---,0.00,VWS V14.01,2013-06-24 09:44:00,
2013-06-24 04:49:00,72.1,67.4,30.09,WSW,248,0.0,0.0,85,0.00,,---,0.00,VWS V14.01,2013-06-24 09:49:00,
2013-06-24 04:54:00,72.1,67.4,30.09,WSW,248,0.0,0.0,85,0.00,,---,0.00,VWS V14.01,2013-06-24 09:54:00,
2013-06-24 04:59:00,72.1,67.4,30.09,WSW,248,0.0,0.0,85,0.00,,---,0.00,VWS V14.01,2013-06-24 09:59:00,
2013-06-24 05:04:00,72.1,67.4,30.09,WSW,248,0.0,0.0,85,0.00,,---,0.00,VWS V14.01,2013-06-24 10:04:00,
2013-06-24 05:09:00,72.1,67.7,30.09,WSW,248,0.0,0.0,86,0.00,,---,0.00,VWS V14.01,2013-06-24 10:09:00,
2013-06-24 05:14:00,72.3,67.9,30.09,WSW,248,0.0,0.0,86,0.00,,---,0.00,VWS V14.01,2013-06-24 10:14:00,
2013-06-24 05:19:00,72.3,67.9,30.09,WSW,248,0.0,0.0,86,0.00,,---,0.00,VWS V14.01,2013-06-24 10:19:00,
2013-06-24 05:25:00,72.3,68.2,30.09,SSW,202,0.0,0.0,87,0.00,,---,0.00,VWS V14.01,2013-06-24 10:25:00,
2013-06-24 05:30:00,72.3,68.2,30.09,SW,225,0.0,0.0,87,0.00,,---,0.00,VWS V14.01,2013-06-24 10:30:00,
2013-06-24 05:35:00,72.5,68.4,30.09,WSW,248,0.0,0.0,87,0.00,,---,0.00,VWS V14.01,2013-06-24 10:35:00,
2013-06-24 05:40:00,72.5,68.4,30.09,WSW,248,0.0,0.0,87,0.00,,---,0.00,VWS V14.01,2013-06-24 10:40:00,
2013-06-24 05:45:00,72.3,68.2,30.09,WSW,248,0.0,0.0,87,0.00,,---,0.00,VWS V14.01,2013-06-24 10:45:00,
2013-06-24 05:50:00,72.3,68.2,30.09,SSW,202,0.0,0.0,87,0.00,,---,0.00,VWS V14.01,2013-06-24 10:50:00,
2013-06-24 05:55:00,72.3,68.2,30.09,SSW,202,0.0,0.0,87,0.00,,---,0.00,VWS V14.01,2013-06-24 10:55:00,
2013-06-24 06:00:00,72.3,68.2,30.09,SSE,158,0.0,0.0,87,0.00,,---,0.00,VWS V14.01,2013-06-24 11:00:00,
2013-06-24 06:05:00,72.3,68.2,30.12,SSW,202,0.0,0.0,87,0.00,,---,0.00,VWS V14.01,2013-06-24 11:05:00,
2013-06-24 06:11:00,72.3,68.2,30.12,SW,225,0.0,0.0,87,0.00,,---,0.00,VWS V14.01,2013-06-24 11:11:00,
2013-06-24 06:16:00,72.3,68.2,30.12,SW,225,0.0,0.0,87,0.00,,---,0.00,VWS V14.01,2013-06-24 11:16:00,
2013-06-24 06:21:00,72.3,68.2,30.12,ESE,112,0.0,0.0,87,0.00,,---,0.00,VWS V14.01,2013-06-24 11:21:00,
2013-06-24 06:26:00,72.3,68.2,30.12,ESE,112,0.0,0.0,87,0.00,,---,0.00,VWS V14.01,2013-06-24 11:26:00,
2013-06-24 06:31:00,72.5,68.4,30.12,ESE,112,0.0,0.0,87,0.00,,---,0.00,VWS V14.01,2013-06-24 11:31:00,
2013-06-24 06:36:00,72.5,68.8,30.12,ESE,112,0.0,0.0,88,0.00,,---,0.00,VWS V14.01,2013-06-24 11:36:00,
2013-06-24 06:41:00,72.5,68.8,30.12,ESE,112,0.0,0.0,88,0.00,,---,0.00,VWS V14.01,2013-06-24 11:41:00,
2013-06-24 06:47:00,72.7,68.9,30.12,ESE,112,0.0,0.0,88,0.00,,---,0.00,VWS V14.01,2013-06-24 11:47:00,
2013-06-24 06:52:00,72.7,68.9,30.12,ESE,112,0.0,0.0,88,0.00,,---,0.00,VWS V14.01,2013-06-24 11:52:00,
2013-06-24 06:57:00,72.9,69.1,30.12,ESE,112,0.0,0.0,88,0.00,,---,0.00,VWS V14.01,2013-06-24 11:57:00,
2013-06-24 07:02:00,72.9,69.1,30.12,ESE,112,0.0,0.0,88,0.00,,---,0.00,VWS V14.01,2013-06-24 12:02:00,
2013-06-24 07:07:00,73.0,69.3,30.15,ESE,112,0.0,0.0,88,0.00,,---,0.00,VWS V14.01,2013-06-24 12:07:00,
2013-06-24 07:12:00,73.0,69.3,30.15,ESE,112,0.0,0.0,88,0.00,,---,0.00,VWS V14.01,2013-06-24 12:12:00,
2013-06-24 07:17:00,73.2,69.5,30.15,ESE,112,0.0,0.0,88,0.00,,---,0.00,VWS V14.01,2013-06-24 12:17:00,
2013-06-24 07:22:00,73.4,69.6,30.15,ESE,112,0.0,0.0,88,0.00,,---,0.00,VWS V14.01,2013-06-24 12:22:00,
2013-06-24 07:27:00,73.6,69.8,30.15,WSW,248,0.0,0.0,88,0.00,,---,0.00,VWS V14.01,2013-06-24 12:27:00,
2013-06-24 07:32:00,73.8,70.0,30.15,WSW,248,0.0,0.0,88,0.00,,---,0.00,VWS V14.01,2013-06-24 12:32:00,
2013-06-24 07:37:00,73.9,70.2,30.15,WSW,248,0.0,0.0,88,0.00,,---,0.00,VWS V14.01,2013-06-24 12:37:00,
2013-06-24 07:42:00,74.3,70.5,30.15,WSW,248,0.0,0.0,88,0.00,,---,0.00,VWS V14.01,2013-06-24 12:42:00,
2013-06-24 07:47:00,74.5,70.7,30.15,WSW,248,0.0,0.0,88,0.00,,---,0.00,VWS V14.01,2013-06-24 12:47:00,
2013-06-24 07:52:00,74.8,71.1,30.15,WSW,248,0.0,0.0,88,0.00,,---,0.00,VWS V14.01,2013-06-24 12:52:00,
2013-06-24 07:58:00,75.2,71.1,30.15,WSW,248,0.0,0.0,87,0.00,,---,0.00,VWS V14.01,2013-06-24 12:58:00,
2013-06-24 08:03:00,75.6,71.4,30.15,WSW,248,0.0,0.0,87,0.00,,---,0.00,VWS V14.01,2013-06-24 13:03:00,
2013-06-24 08:08:00,75.6,71.4,30.15,West,270,0.0,0.0,87,0.00,,---,0.00,VWS V14.01,2013-06-24 13:08:00,
2013-06-24 08:13:00,76.3,71.4,30.15,SW,225,0.0,0.0,85,0.00,,---,0.00,VWS V14.01,2013-06-24 13:13:00,
2013-06-24 08:18:00,76.5,71.6,30.15,WSW,248,0.0,0.0,85,0.00,,---,0.00,VWS V14.01,2013-06-24 13:18:00,
2013-06-24 08:23:00,76.8,72.0,30.18,WSW,248,0.0,0.0,85,0.00,,---,0.00,VWS V14.01,2013-06-24 13:23:00,
2013-06-24 08:28:00,77.4,72.2,30.18,SW,225,0.0,0.0,84,0.00,,---,0.00,VWS V14.01,2013-06-24 13:28:00,
2013-06-24 08:33:00,77.7,72.2,30.18,SW,225,0.0,0.0,83,0.00,,---,0.00,VWS V14.01,2013-06-24 13:33:00,
2013-06-24 08:38:00,78.1,72.5,30.15,West,270,0.0,0.0,83,0.00,,---,0.00,VWS V14.01,2013-06-24 13:38:00,
2013-06-24 08:43:00,78.4,72.1,30.15,WSW,248,0.0,0.0,81,0.00,,---,0.00,VWS V14.01,2013-06-24 13:43:00,
2013-06-24 08:48:00,78.8,71.7,30.15,WSW,248,0.0,0.0,79,0.00,,---,0.00,VWS V14.01,2013-06-24 13:48:00,
2013-06-24 08:53:00,79.3,72.3,30.15,West,270,0.0,0.0,79,0.00,,---,0.00,VWS V14.01,2013-06-24 13:53:00,
2013-06-24 08:58:00,79.7,71.9,30.15,West,270,3.8,3.8,77,0.00,,---,0.00,VWS V14.01,2013-06-24 13:58:00,
2013-06-24 09:03:00,80.4,72.6,30.15,West,270,0.0,2.5,77,0.00,,---,0.00,VWS V14.01,2013-06-24 14:03:00,
2013-06-24 09:08:00,81.1,72.5,30.15,West,270,2.2,2.2,75,0.00,,---,0.00,VWS V14.01,2013-06-24 14:08:00,
2013-06-24 09:13:00,81.5,72.0,30.15,WNW,292,3.1,3.8,73,0.00,,---,0.00,VWS V14.01,2013-06-24 14:13:00,
2013-06-24 09:18:00,81.5,71.2,30.15,SSW,202,3.6,3.6,71,0.00,,---,0.00,VWS V14.01,2013-06-24 14:18:00,
2013-06-24 09:23:00,81.7,70.9,30.18,West,270,1.6,2.7,70,0.00,,---,0.00,VWS V14.01,2013-06-24 14:23:00,
2013-06-24 09:29:00,81.9,71.1,30.18,West,270,0.0,0.0,70,0.00,,---,0.00,VWS V14.01,2013-06-24 14:29:00,
2013-06-24 09:33:00,81.7,70.5,30.18,WNW,292,2.5,3.4,69,0.00,,---,0.00,VWS V14.01,2013-06-24 14:33:00,
2013-06-24 09:39:00,81.7,70.5,30.15,WSW,248,3.8,3.8,69,0.00,,---,0.00,VWS V14.01,2013-06-24 14:39:00,
2013-06-24 09:43:00,81.9,70.7,30.15,West,270,2.0,3.1,69,0.00,,---,0.00,VWS V14.01,2013-06-24 14:43:00,
2013-06-24 09:48:00,82.2,70.6,30.15,WNW,292,1.3,4.3,68,0.00,,---,0.00,VWS V14.01,2013-06-24 14:48:00,
2013-06-24 09:53:00,82.2,70.6,30.18,NW,315,2.7,3.6,68,0.00,,---,0.00,VWS V14.01,2013-06-24 14:53:00,
2013-06-24 09:59:00,82.4,70.8,30.18,WNW,292,2.5,2.5,68,0.00,,---,0.00,VWS V14.01,2013-06-24 14:59:00,
2013-06-24 10:04:00,83.5,72.7,30.18,West,270,0.0,0.0,70,0.00,,---,0.00,VWS V14.01,2013-06-24 15:04:00,
2013-06-24 10:09:00,83.8,72.2,30.18,NW,315,0.0,0.0,68,0.00,,---,0.00,VWS V14.01,2013-06-24 15:09:00,
2013-06-24 10:14:00,84.9,72.8,30.18,West,270,2.5,2.9,67,0.00,,---,0.00,VWS V14.01,2013-06-24 15:14:00,
2013-06-24 10:19:00,86.0,73.8,30.18,WSW,248,2.0,2.0,67,0.00,,---,0.00,VWS V14.01,2013-06-24 15:19:00,
2013-06-24 10:24:00,86.5,73.8,30.18,WSW,248,0.0,0.0,66,0.00,,---,0.00,VWS V14.01,2013-06-24 15:24:00,
2013-06-24 10:29:00,87.3,74.5,30.18,WSW,248,2.0,4.3,66,0.00,,---,0.00,VWS V14.01,2013-06-24 15:29:00,
2013-06-24 10:34:00,88.5,75.3,30.18,SW,225,0.0,0.0,65,0.00,,---,0.00,VWS V14.01,2013-06-24 15:34:00,
2013-06-24 10:39:00,89.2,74.0,30.18,West,270,4.0,5.6,61,0.00,,---,0.00,VWS V14.01,2013-06-24 15:39:00,
2013-06-24 10:44:00,89.8,74.1,30.18,West,270,0.0,3.4,60,0.00,,---,0.00,VWS V14.01,2013-06-24 15:44:00,
2013-06-24 10:49:00,89.8,72.5,30.18,WNW,292,2.5,2.9,57,0.00,,---,0.00,VWS V14.01,2013-06-24 15:49:00,
2013-06-24 10:54:00,90.7,74.4,30.18,WSW,248,0.0,0.0,59,0.00,,---,0.00,VWS V14.01,2013-06-24 15:54:00,
2013-06-24 10:59:00,91.8,73.3,30.18,WNW,292,2.7,3.8,55,0.00,,---,0.00,VWS V14.01,2013-06-24 15:59:00,
2013-06-24 11:04:00,91.8,71.7,30.18,West,270,2.7,5.6,52,0.00,,---,0.00,VWS V14.01,2013-06-24 16:04:00,
2013-06-24 11:09:00,91.2,70.6,30.18,WNW,292,0.0,0.0,51,0.00,,---,0.00,VWS V14.01,2013-06-24 16:09:00,
2013-06-24 11:15:00,91.6,71.5,30.18,NW,315,1.3,2.9,52,0.00,,---,0.00,VWS V14.01,2013-06-24 16:15:00,
2013-06-24 11:20:00,91.4,71.3,30.15,WNW,292,0.0,0.0,52,0.00,,---,0.00,VWS V14.01,2013-06-24 16:20:00,
2013-06-24 11:25:00,92.8,70.3,30.15,WNW,292,6.0,6.0,48,0.00,,---,0.00,VWS V14.01,2013-06-24 16:25:00,
2013-06-24 11:30:00,93.6,70.9,30.15,NW,315,8.5,8.5,48,0.00,,---,0.00,VWS V14.01,2013-06-24 16:30:00,
2013-06-24 11:35:00,93.9,70.0,30.15,West,270,3.4,3.4,46,0.00,,---,0.00,VWS V14.01,2013-06-24 16:35:00,
2013-06-24 11:40:00,94.8,70.8,30.15,WSW,248,1.6,4.3,46,0.00,,---,0.00,VWS V14.01,2013-06-24 16:40:00,
2013-06-24 11:45:00,95.5,70.2,30.15,NW,315,2.5,3.1,44,0.00,,---,0.00,VWS V14.01,2013-06-24 16:45:00,
2013-06-24 11:50:00,96.4,71.6,30.15,NNW,338,0.9,2.0,45,0.00,,---,0.00,VWS V14.01,2013-06-24 16:50:00,
2013-06-24 11:55:00,97.0,70.8,30.15,WNW,292,0.0,0.0,43,0.00,,---,0.00,VWS V14.01,2013-06-24 16:55:00,
2013-06-24 12:00:00,96.4,68.9,30.15,West,270,2.0,4.3,41,0.00,,---,0.00,VWS V14.01,2013-06-24 17:00:00,
2013-06-24 12:05:00,97.3,68.3,30.15,WNW,292,5.4,6.0,39,0.00,,---,0.00,VWS V14.01,2013-06-24 17:05:00,
2013-06-24 12:10:00,97.9,68.7,30.15,NNW,338,2.9,2.9,39,0.00,,---,0.00,VWS V14.01,2013-06-24 17:10:00,
2013-06-24 12:15:00,98.1,68.9,30.15,WNW,292,3.1,3.1,39,0.00,,---,0.00,VWS V14.01,2013-06-24 17:15:00,
2013-06-24 12:20:00,98.2,69.8,30.15,NW,315,2.9,4.3,40,0.00,,---,0.00,VWS V14.01,2013-06-24 17:20:00,
2013-06-24 12:25:00,98.2,67.5,30.15,WNW,292,6.0,6.0,37,0.00,,---,0.00,VWS V14.01,2013-06-24 17:25:00,
2013-06-24 12:30:00,98.6,68.6,30.15,WNW,292,4.9,4.9,38,0.00,,---,0.00,VWS V14.01,2013-06-24 17:30:00,
2013-06-24 12:35:00,97.2,67.3,30.15,ENE,68,2.7,3.6,38,0.00,,---,0.00,VWS V14.01,2013-06-24 17:35:00,
2013-06-24 12:40:00,97.2,68.1,30.15,West,270,5.4,5.4,39,0.00,,---,0.00,VWS V14.01,2013-06-24 17:40:00,
2013-06-24 12:45:00,98.8,70.3,30.15,NNE,22,3.6,3.6,40,0.00,,---,0.00,VWS V14.01,2013-06-24 17:45:00,
2013-06-24 12:50:00,99.0,68.9,30.15,WSW,248,2.5,3.8,38,0.00,,---,0.00,VWS V14.01,2013-06-24 17:50:00,
2013-06-24 12:55:00,97.9,67.2,30.15,WNW,292,4.0,5.4,37,0.00,,---,0.00,VWS V14.01,2013-06-24 17:55:00,
2013-06-24 13:01:00,97.0,66.4,30.15,West,270,1.3,3.6,37,0.00,,---,0.00,VWS V14.01,2013-06-24 18:01:00,
2013-06-24 13:06:00,97.5,67.7,30.15,West,270,2.5,4.3,38,0.00,,---,0.00,VWS V14.01,2013-06-24 18:06:00,
2013-06-24 13:11:00,96.4,66.7,30.15,West,270,2.5,3.8,38,0.00,,---,0.00,VWS V14.01,2013-06-24 18:11:00,
2013-06-24 13:16:00,95.5,64.4,30.15,WNW,292,2.7,3.8,36,0.00,,---,0.00,VWS V14.01,2013-06-24 18:16:00,
2013-06-24 13:21:00,95.2,65.6,30.15,WSW,248,3.8,3.8,38,0.00,,---,0.00,VWS V14.01,2013-06-24 18:21:00,
2013-06-24 13:27:00,93.9,65.2,30.15,WNW,292,0.0,0.0,39,0.00,,---,0.00,VWS V14.01,2013-06-24 18:27:00,
2013-06-24 13:32:00,93.4,65.5,30.15,NW,315,1.1,2.0,40,0.00,,---,0.00,VWS V14.01,2013-06-24 18:32:00,
2013-06-24 13:37:00,92.5,65.4,30.15,NW,315,2.9,2.9,41,0.00,,---,0.00,VWS V14.01,2013-06-24 18:37:00,
2013-06-24 13:42:00,92.1,65.8,30.15,West,270,0.0,0.0,42,0.00,,---,0.00,VWS V14.01,2013-06-24 18:42:00,
2013-06-24 13:47:00,92.1,66.4,30.15,West,270,0.0,0.0,43,0.00,,---,0.00,VWS V14.01,2013-06-24 18:47:00,
2013-06-24 13:52:00,92.1,65.1,30.15,WNW,292,0.0,0.0,41,0.00,,---,0.00,VWS V14.01,2013-06-24 18:52:00,
2013-06-24 13:57:00,91.4,64.4,30.15,WNW,292,1.6,1.6,41,0.00,,---,0.00,VWS V14.01,2013-06-24 18:57:00,
2013-06-24 14:02:00,91.4,65.8,30.15,NNE,22,1.3,1.3,43,0.00,,---,0.00,VWS V14.01,2013-06-24 19:02:00,
2013-06-24 14:07:00,91.8,66.8,30.15,SSW,202,2.5,3.1,44,0.00,,---,0.00,VWS V14.01,2013-06-24 19:07:00,
2013-06-24 14:12:00,93.2,68.7,30.15,West,270,1.6,2.2,45,0.00,,---,0.00,VWS V14.01,2013-06-24 19:12:00,
2013-06-24 14:17:00,93.9,68.7,30.15,West,270,2.0,2.7,44,0.00,,---,0.00,VWS V14.01,2013-06-24 19:17:00,
2013-06-24 14:22:00,95.4,69.3,30.15,NE,45,3.4,3.8,43,0.00,,---,0.00,VWS V14.01,2013-06-24 19:22:00,
2013-06-24 14:27:00,95.5,68.1,30.15,WNW,292,2.2,2.2,41,0.00,,---,0.00,VWS V14.01,2013-06-24 19:27:00,
2013-06-24 14:32:00,94.8,67.5,30.15,WSW,248,2.7,2.7,41,0.00,,---,0.00,VWS V14.01,2013-06-24 19:32:00,
2013-06-24 14:37:00,92.3,64.5,30.15,West,270,2.5,3.8,40,0.00,,---,0.00,VWS V14.01,2013-06-24 19:37:00,
2013-06-24 14:42:00,90.0,64.5,30.15,SSW,202,0.0,2.7,43,0.00,,---,0.00,VWS V14.01,2013-06-24 19:42:00,
2013-06-24 14:47:00,88.7,63.3,30.15,SSW,202,2.7,9.2,43,0.00,,---,0.00,VWS V14.01,2013-06-24 19:47:00,
2013-06-24 14:52:00,87.1,63.2,30.15,West,270,2.0,3.1,45,0.00,,---,0.00,VWS V14.01,2013-06-24 19:52:00,
2013-06-24 14:57:00,86.4,64.4,30.15,WSW,248,3.6,4.0,48,0.00,,---,0.00,VWS V14.01,2013-06-24 19:57:00,
2013-06-24 15:02:00,86.4,65.0,30.15,WNW,292,2.5,4.3,49,0.00,,---,0.00,VWS V14.01,2013-06-24 20:02:00,
2013-06-24 15:08:00,85.8,65.1,30.15,SSW,202,0.0,0.0,50,0.00,,---,0.00,VWS V14.01,2013-06-24 20:08:00,
2013-06-24 15:13:00,85.1,65.5,30.15,SSW,202,4.0,4.0,52,0.00,,---,0.00,VWS V14.01,2013-06-24 20:13:00,
2013-06-24 15:18:00,84.6,65.6,30.15,SW,225,4.0,4.0,53,0.00,,---,0.00,VWS V14.01,2013-06-24 20:18:00,
2013-06-24 15:23:00,83.8,67.0,30.15,SSW,202,0.0,0.0,57,0.00,,---,0.00,VWS V14.01,2013-06-24 20:23:00,
2013-06-24 15:28:00,82.6,67.3,30.15,WSW,248,0.0,0.0,60,0.00,,---,0.00,VWS V14.01,2013-06-24 20:28:00,
2013-06-24 15:33:00,81.5,66.8,30.15,South,180,0.0,0.0,61,0.00,,---,0.00,VWS V14.01,2013-06-24 20:33:00,
2013-06-24 15:38:00,80.6,66.4,30.15,WSW,248,0.0,0.0,62,0.00,,---,0.00,VWS V14.01,2013-06-24 20:38:00,
2013-06-24 15:43:00,80.2,66.5,30.15,WSW,248,0.0,0.0,63,0.00,,---,0.00,VWS V14.01,2013-06-24 20:43:00,
2013-06-24 15:48:00,79.3,66.6,30.15,WNW,292,0.0,0.0,65,0.00,,---,0.00,VWS V14.01,2013-06-24 20:48:00,
2013-06-24 15:53:00,78.6,66.8,30.15,West,270,2.0,2.5,67,0.00,,---,0.00,VWS V14.01,2013-06-24 20:53:00,
2013-06-24 15:58:00,79.0,67.5,30.15,WSW,248,1.6,3.6,68,0.00,,---,0.00,VWS V14.01,2013-06-24 20:58:00,
2013-06-24 16:03:00,78.3,68.1,30.15,WSW,248,1.6,1.6,71,0.09,,---,0.09,VWS V14.01,2013-06-24 21:03:00,
2013-06-24 16:08:00,77.7,68.8,30.15,SW,225,0.0,0.0,74,0.09,,---,0.09,VWS V14.01,2013-06-24 21:08:00,
2013-06-24 16:13:00,77.2,68.3,30.15,SW,225,0.0,0.0,74,0.09,,---,0.09,VWS V14.01,2013-06-24 21:13:00,
2013-06-24 16:18:00,76.8,68.7,30.15,WSW,248,0.0,0.0,76,0.09,,---,0.09,VWS V14.01,2013-06-24 21:18:00,
2013-06-24 16:23:00,76.6,68.9,30.12,WSW,248,0.0,0.0,77,0.09,,---,0.09,VWS V14.01,2013-06-24 21:23:00,
2013-06-24 16:28:00,76.5,69.1,30.12,WSW,248,0.0,0.0,78,0.09,,---,0.09,VWS V14.01,2013-06-24 21:28:00,
2013-06-24 16:33:00,76.8,69.8,30.12,WNW,292,1.6,2.9,79,0.09,,---,0.09,VWS V14.01,2013-06-24 21:33:00,
2013-06-24 16:38:00,77.9,71.6,30.12,West,270,2.2,2.2,81,0.09,,---,0.09,VWS V14.01,2013-06-24 21:38:00,
2013-06-24 16:44:00,78.3,71.6,30.12,West,270,0.0,1.1,80,0.09,,---,0.09,VWS V14.01,2013-06-24 21:44:00,
2013-06-24 16:49:00,78.6,71.9,30.12,SSW,202,3.6,3.6,80,0.09,,---,0.09,VWS V14.01,2013-06-24 21:49:00,
2013-06-24 16:54:00,78.8,72.5,30.12,West,270,0.0,0.0,81,0.09,,---,0.09,VWS V14.01,2013-06-24 21:54:00,
2013-06-24 16:59:00,79.0,72.3,30.12,West,270,0.0,0.0,80,0.09,,---,0.09,VWS V14.01,2013-06-24 21:59:00,
2013-06-24 17:04:00,79.3,73.0,30.12,SSW,202,3.6,3.6,81,0.00,,---,0.09,VWS V14.01,2013-06-24 22:04:00,
2013-06-24 17:09:00,79.3,73.0,30.12,WNW,292,2.9,2.9,81,0.00,,---,0.09,VWS V14.01,2013-06-24 22:09:00,
2013-06-24 17:14:00,79.5,72.4,30.12,West,270,3.8,3.8,79,0.00,,---,0.09,VWS V14.01,2013-06-24 22:14:00,
2013-06-24 17:19:00,79.5,72.1,30.12,SW,225,0.0,0.0,78,0.00,,---,0.09,VWS V14.01,2013-06-24 22:19:00,
2013-06-24 17:24:00,79.7,72.2,30.12,WSW,248,2.0,2.0,78,0.00,,---,0.09,VWS V14.01,2013-06-24 22:24:00,
2013-06-24 17:29:00,79.9,72.4,30.12,West,270,0.0,0.0,78,0.00,,---,0.09,VWS V14.01,2013-06-24 22:29:00,
2013-06-24 17:34:00,79.9,72.0,30.12,WSW,248,0.0,0.0,77,0.00,,---,0.09,VWS V14.01,2013-06-24 22:34:00,
2013-06-24 17:39:00,80.1,71.8,30.12,WSW,248,0.0,0.0,76,0.00,,---,0.09,VWS V14.01,2013-06-24 22:39:00,
2013-06-24 17:44:00,80.2,71.6,30.12,West,270,0.0,0.0,75,0.00,,---,0.09,VWS V14.01,2013-06-24 22:44:00,
2013-06-24 17:49:00,80.2,71.6,30.12,West,270,3.1,3.6,75,0.00,,---,0.09,VWS V14.01,2013-06-24 22:49:00,
2013-06-24 17:54:00,80.2,71.2,30.12,West,270,0.0,0.0,74,0.00,,---,0.09,VWS V14.01,2013-06-24 22:54:00,
2013-06-24 17:59:00,80.2,71.2,30.12,WSW,248,0.0,4.7,74,0.00,,---,0.09,VWS V14.01,2013-06-24 22:59:00,
2013-06-24 18:04:00,80.2,70.8,30.12,SSW,202,1.3,2.2,73,0.00,,---,0.09,VWS V14.01,2013-06-24 23:04:00,
2013-06-24 18:10:00,80.2,70.8,30.12,WSW,248,0.0,0.0,73,0.00,,---,0.09,VWS V14.01,2013-06-24 23:10:00,
2013-06-24 18:15:00,80.2,70.8,30.12,WSW,248,0.0,0.0,73,0.00,,---,0.09,VWS V14.01,2013-06-24 23:15:00,
2013-06-24 18:20:00,80.2,70.8,30.12,SW,225,0.0,0.0,73,0.00,,---,0.09,VWS V14.01,2013-06-24 23:20:00,
2013-06-24 18:25:00,80.2,70.4,30.12,WSW,248,0.0,0.0,72,0.00,,---,0.09,VWS V14.01,2013-06-24 23:25:00,
2013-06-24 18:30:00,80.2,70.4,30.12,West,270,0.0,0.0,72,0.00,,---,0.09,VWS V14.01,2013-06-24 23:30:00,
2013-06-24 18:35:00,80.2,70.0,30.12,WSW,248,1.3,2.7,71,0.00,,---,0.00,VWS V14.01,2013-06-24 23:35:00,
2013-06-24 18:40:00,80.2,70.0,30.12,SW,225,0.0,0.0,71,0.00,,---,0.09,VWS V14.01,2013-06-24 23:40:00,
2013-06-24 18:45:00,80.1,69.8,30.12,WSW,248,3.1,3.1,71,0.00,,---,0.09,VWS V14.01,2013-06-24 23:45:00,
2013-06-24 18:50:00,80.1,70.2,30.12,WSW,248,0.0,0.0,72,0.00,,---,0.09,VWS V14.01,2013-06-24 23:50:00,
2013-06-24 18:55:00,80.1,69.8,30.12,WSW,248,0.0,3.6,71,0.00,,---,0.09,VWS V14.01,2013-06-24 23:55:00,
2013-06-24 19:00:00,79.9,70.1,30.12,WSW,248,0.0,0.0,72,0.00,,---,0.09,VWS V14.01,2013-06-25 00:00:00,
2013-06-24 19:05:00,79.7,69.9,30.09,WSW,248,0.0,0.0,72,0.00,,---,0.09,VWS V14.01,2013-06-25 00:05:00,
2013-06-24 19:10:00,79.7,69.9,30.09,West,270,0.0,1.3,72,0.00,,---,0.09,VWS V14.01,2013-06-25 00:10:00,
2013-06-24 19:15:00,79.7,69.9,30.09,WSW,248,1.3,2.7,72,0.00,,---,0.09,VWS V14.01,2013-06-25 00:15:00,
2013-06-24 19:20:00,79.5,69.7,30.09,WSW,248,0.0,0.0,72,0.00,,---,0.09,VWS V14.01,2013-06-25 00:20:00,
2013-06-24 19:25:00,79.5,69.7,30.09,WSW,248,0.0,0.0,72,0.00,,---,0.09,VWS V14.01,2013-06-25 00:25:00,
2013-06-24 19:31:00,79.3,69.5,30.09,WSW,248,0.0,1.3,72,0.00,,---,0.09,VWS V14.01,2013-06-25 00:31:00,
2013-06-24 19:35:00,79.2,69.4,30.09,WSW,248,0.0,0.0,72,0.00,,---,0.09,VWS V14.01,2013-06-25 00:35:00,
2013-06-24 19:40:00,79.2,69.4,30.09,NW,315,0.9,0.9,72,0.00,,---,0.09,VWS V14.01,2013-06-25 00:40:00,
2013-06-24 19:46:00,79.2,69.4,30.09,WSW,248,0.9,1.1,72,0.00,,---,0.09,VWS V14.01,2013-06-25 00:46:00,
2013-06-24 19:51:00,78.8,69.0,30.09,West,270,0.0,0.0,72,0.00,,---,0.09,VWS V14.01,2013-06-25 00:51:00,
2013-06-24 19:55:00,78.6,69.2,30.09,West,270,3.6,3.6,73,0.00,,---,0.09,VWS V14.01,2013-06-25 00:55:00,
2013-06-24 20:00:00,78.6,69.2,30.09,West,270,0.0,0.0,73,0.00,,---,0.09,VWS V14.01,2013-06-25 01:00:00,
2013-06-24 20:06:00,78.4,69.1,30.09,WSW,248,0.0,0.0,73,0.00,,---,0.09,VWS V14.01,2013-06-25 01:06:00,
2013-06-24 20:11:00,78.3,69.3,30.09,WSW,248,0.0,0.0,74,0.00,,---,0.09,VWS V14.01,2013-06-25 01:11:00,
2013-06-24 20:16:00,78.1,69.1,30.09,WSW,248,0.0,0.0,74,0.00,,---,0.09,VWS V14.01,2013-06-25 01:16:00,
2013-06-24 20:21:00,77.9,69.3,30.09,West,270,0.0,0.0,75,0.00,,---,0.09,VWS V14.01,2013-06-25 01:21:00,
2013-06-24 20:26:00,77.7,69.2,30.09,West,270,0.0,0.0,75,0.00,,---,0.09,VWS V14.01,2013-06-25 01:26:00,
2013-06-24 20:31:00,77.7,69.2,30.09,West,270,0.0,0.0,75,0.00,,---,0.09,VWS V14.01,2013-06-25 01:31:00,
2013-06-24 20:36:00,77.4,69.2,30.09,West,270,0.0,0.0,76,0.00,,---,0.09,VWS V14.01,2013-06-25 01:36:00,
2013-06-24 20:41:00,77.4,69.2,30.09,West,270,0.0,0.0,76,0.00,,---,0.09,VWS V14.01,2013-06-25 01:41:00,
2013-06-24 20:46:00,77.2,69.0,30.09,West,270,0.0,0.0,76,0.00,,---,0.09,VWS V14.01,2013-06-25 01:46:00,
2013-06-24 20:51:00,77.0,69.2,30.09,West,270,0.0,0.0,77,0.00,,---,0.09,VWS V14.01,2013-06-25 01:51:00,
2013-06-24 20:57:00,76.8,69.4,30.09,West,270,0.0,0.0,78,0.00,,---,0.09,VWS V14.01,2013-06-25 01:57:00,
2013-06-24 21:02:00,76.8,69.4,30.09,West,270,0.0,0.0,78,0.00,,---,0.09,VWS V14.01,2013-06-25 02:02:00,
2013-06-24 21:07:00,76.6,69.6,30.09,West,270,0.0,0.0,79,0.00,,---,0.09,VWS V14.01,2013-06-25 02:07:00,
2013-06-24 21:12:00,76.5,69.5,30.09,West,270,0.0,0.0,79,0.00,,---,0.09,VWS V14.01,2013-06-25 02:12:00,
2013-06-24 21:17:00,76.5,69.5,30.09,West,270,0.0,0.0,79,0.00,,---,0.09,VWS V14.01,2013-06-25 02:17:00,
2013-06-24 21:22:00,76.3,69.7,30.09,West,270,0.0,0.0,80,0.00,,---,0.09,VWS V14.01,2013-06-25 02:22:00,
2013-06-24 21:27:00,76.1,69.5,30.09,West,270,0.0,0.0,80,0.00,,---,0.09,VWS V14.01,2013-06-25 02:27:00,
2013-06-24 21:32:00,76.1,69.8,30.09,West,270,0.0,0.0,81,0.00,,---,0.09,VWS V14.01,2013-06-25 02:32:00,
2013-06-24 21:38:00,75.9,69.7,30.09,West,270,0.0,0.0,81,0.00,,---,0.09,VWS V14.01,2013-06-25 02:38:00,
2013-06-24 21:43:00,75.7,69.9,30.09,West,270,0.0,0.0,82,0.00,,---,0.09,VWS V14.01,2013-06-25 02:43:00,
2013-06-24 21:48:00,75.7,69.9,30.09,West,270,0.0,0.0,82,0.00,,---,0.09,VWS V14.01,2013-06-25 02:48:00,
2013-06-24 21:53:00,75.7,69.9,30.09,West,270,0.0,0.0,82,0.00,,---,0.09,VWS V14.01,2013-06-25 02:53:00,
2013-06-24 21:58:00,75.6,70.0,30.09,WSW,248,0.0,0.0,83,0.00,,---,0.09,VWS V14.01,2013-06-25 02:58:00,
2013-06-24 22:03:00,75.6,70.0,30.09,WSW,248,0.0,0.0,83,0.00,,---,0.09,VWS V14.01,2013-06-25 03:03:00,
2013-06-24 22:08:00,75.4,69.9,30.09,WSW,248,0.0,0.0,83,0.00,,---,0.09,VWS V14.01,2013-06-25 03:08:00,
2013-06-24 22:13:00,75.4,69.9,30.09,WSW,248,0.0,0.0,83,0.00,,---,0.09,VWS V14.01,2013-06-25 03:13:00,
2013-06-24 22:18:00,75.4,70.2,30.09,WSW,248,0.0,0.0,84,0.00,,---,0.09,VWS V14.01,2013-06-25 03:18:00,
2013-06-24 22:23:00,75.2,70.0,30.09,WSW,248,0.0,0.0,84,0.00,,---,0.09,VWS V14.01,2013-06-25 03:23:00,
2013-06-24 22:28:00,75.2,70.4,30.09,WSW,248,0.0,0.0,85,0.00,,---,0.09,VWS V14.01,2013-06-25 03:28:00,
2013-06-24 22:33:00,75.0,70.2,30.09,WSW,248,0.0,0.0,85,0.00,,---,0.09,VWS V14.01,2013-06-25 03:33:00,
2013-06-24 22:38:00,75.0,70.6,30.09,WSW,248,0.0,0.0,86,0.00,,---,0.09,VWS V14.01,2013-06-25 03:38:00,
2013-06-24 22:43:00,75.0,70.6,30.09,WSW,248,0.0,0.0,86,0.00,,---,0.09,VWS V14.01,2013-06-25 03:43:00,
2013-06-24 22:49:00,74.8,70.4,30.09,WSW,248,0.0,0.0,86,0.00,,---,0.09,VWS V14.01,2013-06-25 03:49:00,
2013-06-24 22:54:00,74.8,70.7,30.09,WSW,248,0.0,0.0,87,0.00,,---,0.09,VWS V14.01,2013-06-25 03:54:00,
2013-06-24 22:59:00,74.8,70.7,30.09,WSW,248,0.0,0.0,87,0.00,,---,0.09,VWS V14.01,2013-06-25 03:59:00,
2013-06-24 23:01:00,74.8,70.7,30.09,WSW,248,0.0,0.0,87,0.00,,---,0.09,VWS V14.01,2013-06-25 04:01:00,
2013-06-24 23:06:00,75.0,71.2,30.09,West,270,0.0,0.0,88,0.00,,---,0.09,VWS V14.01,2013-06-25 04:06:00,
2013-06-24 23:11:00,75.0,71.2,30.09,WSW,248,0.0,0.0,88,0.00,,---,0.09,VWS V14.01,2013-06-25 04:11:00,
2013-06-24 23:16:00,75.2,71.4,30.09,West,270,0.0,0.0,88,0.00,,---,0.09,VWS V14.01,2013-06-25 04:16:00,
2013-06-24 23:21:00,75.2,71.4,30.09,WSW,248,0.0,0.0,88,0.00,,---,0.09,VWS V14.01,2013-06-25 04:21:00,
2013-06-24 23:26:00,75.2,71.4,30.09,West,270,0.0,0.0,88,0.00,,---,0.09,VWS V14.01,2013-06-25 04:26:00,
2013-06-24 23:31:00,75.0,71.2,30.09,West,270,0.0,0.0,88,0.00,,---,0.09,VWS V14.01,2013-06-25 04:31:00,
2013-06-24 23:36:00,75.0,71.6,30.09,WSW,248,0.0,0.0,89,0.00,,---,0.09,VWS V14.01,2013-06-25 04:36:00,
2013-06-24 23:41:00,75.0,71.6,30.09,WSW,248,0.0,0.0,89,0.00,,---,0.09,VWS V14.01,2013-06-25 04:41:00,
2013-06-24 23:46:00,75.0,71.6,30.09,WSW,248,0.0,0.0,89,0.00,,---,0.09,VWS V14.01,2013-06-25 04:46:00,
2013-06-24 23:51:00,74.8,71.4,30.09,WSW,248,0.0,0.0,89,0.00,,---,0.09,VWS V14.01,2013-06-25 04:51:00,
2013-06-24 23:56:00,74.8,71.4,30.09,WSW,248,0.0,0.0,89,0.00,,---,0.09,VWS V14.01,2013-06-25 04:56:00,